Torna al catalogo

GALAXY 2

AttivoComunicazioniGEO
NORAD 14365·PAYLOAD·🇺🇸 United States

Lanciato Sep 22, 1983 da Cape Canaveral Space Force Station

Loading…

TLE

AggiornatoSource: Space-Track

Epoca: Sep 14, 2026, 13:05 UTC

1 14365U 83098A   26257.54540316 -.00000052  00000-0  00000-0 0  9995
2 14365  13.5521 341.3145 0003157 136.8216 242.7491  1.00233908133138

Traccia GALAXY 2 in tempo reale con AllMySat

Download on the App Store